| time (UTC) | temp C | wind direction | speed KPH | gust KPH | rain 1hr cm | rain 24hr cm | rain mn cm | humidity % | barometer mb |
| 20260510211337 | 16 | 285 | 17.7 | 20.9 | 0.00 | 0.30 | 0.30 | 40 | 1006.3 |
| 20260510210833 | 16 | 280 | 14.5 | 27.4 | 0.00 | 0.30 | 0.30 | 40 | 1006.2 |
| 20260510210328 | 15 | 256 | 9.7 | 14.5 | 0.00 | 0.30 | 0.30 | 45 | 1005.9 |
| 20260510205827 | 15 | 286 | 16.1 | 30.6 | 0.00 | 0.30 | 0.30 | 42 | 1005.9 |
| 20260510205323 | 16 | 283 | 12.9 | 14.5 | 0.00 | 0.30 | 0.30 | 45 | 1006.0 |
| 20260510204819 | 16 | 255 | 17.7 | 19.3 | 0.00 | 0.30 | 0.30 | 44 | 1006.1 |
| 20260510204316 | 15 | 228 | 6.4 | 11.3 | 0.00 | 0.30 | 0.30 | 50 | 1005.9 |
| 20260510203812 | 15 | 277 | 12.9 | 16.1 | 0.00 | 0.30 | 0.30 | 47 | 1006.0 |
| 20260510203310 | 15 | 264 | 8.0 | 20.9 | 0.00 | 0.30 | 0.30 | 48 | 1006.1 |
| 20260510202810 | 15 | 244 | 9.7 | 19.3 | 0.00 | 0.30 | 0.30 | 49 | 1006.2 |
| 20260510202306 | 15 | 205 | 8.0 | 25.7 | 0.00 | 0.30 | 0.30 | 47 | 1006.2 |
| 20260510201803 | 15 | 253 | 6.4 | 19.3 | 0.00 | 0.30 | 0.30 | 46 | 1006.0 |
| 20260510201300 | 16 | 266 | 20.9 | 27.4 | 0.00 | 0.30 | 0.30 | 45 | 1006.2 |
| 20260510200756 | 16 | 268 | 17.7 | 19.3 | 0.00 | 0.30 | 0.30 | 49 | 1006.0 |
| 20260510200254 | 16 | 280 | 17.7 | 27.4 | 0.00 | 0.30 | 0.30 | 46 | 1006.1 |
| 20260510195750 | 16 | 227 | 14.5 | 19.3 | 0.00 | 0.30 | 0.30 | 49 | 1006.0 |
| 20260510195247 | 16 | 222 | 11.3 | 17.7 | 0.00 | 0.30 | 0.30 | 48 | 1006.2 |
| 20260510194746 | 16 | 266 | 12.9 | 24.1 | 0.00 | 0.30 | 0.30 | 49 | 1006.0 |
| 20260510194244 | 16 | 281 | 20.9 | 41.8 | 0.00 | 0.30 | 0.30 | 45 | 1006.2 |
| 20260510193739 | 16 | 129 | 14.5 | 19.3 | 0.00 | 0.30 | 0.30 | 47 | 1006.1 |
| 20260510193234 | 16 | 229 | 14.5 | 27.4 | 0.00 | 0.30 | 0.30 | 46 | 1006.0 |
| 20260510192730 | 15 | 263 | 14.5 | 24.1 | 0.00 | 0.30 | 0.30 | 47 | 1006.1 |
| 20260510192225 | 16 | 268 | 17.7 | 27.4 | 0.00 | 0.30 | 0.30 | 52 | 1006.1 |
| 20260510191721 | 16 | 263 | 6.4 | 25.7 | 0.00 | 0.30 | 0.30 | 51 | 1006.1 |
| 20260510191218 | 15 | 247 | 27.4 | 30.6 | 0.00 | 0.30 | 0.30 | 53 | 1006.1 |
| 20260510190715 | 15 | 274 | 17.7 | 19.3 | 0.00 | 0.30 | 0.30 | 58 | 1006.1 |
| 20260510190213 | 15 | 268 | 17.7 | 37.0 | 0.00 | 0.30 | 0.30 | 56 | 1006.1 |
| 20260510185709 | 15 | 260 | 11.3 | 27.4 | 0.00 | 0.30 | 0.30 | 55 | 1006.1 |
| 20260510185208 | 15 | 275 | 19.3 | 25.7 | 0.00 | 0.30 | 0.30 | 59 | 1006.3 |
| 20260510184704 | 15 | 212 | 14.5 | 24.1 | 0.00 | 0.30 | 0.30 | 57 | 1006.3 |
| 20260510184200 | 16 | 252 | 6.4 | 20.9 | 0.00 | 0.30 | 0.30 | 60 | 1006.3 |
| 20260510183655 | 15 | 280 | 27.4 | 33.8 | 0.00 | 0.30 | 0.30 | 61 | 1006.1 |
| 20260510183150 | 15 | 245 | 11.3 | 20.9 | 0.00 | 0.30 | 0.30 | 65 | 1006.3 |
| 20260510182647 | 15 | 262 | 25.7 | 30.6 | 0.00 | 0.30 | 0.30 | 65 | 1006.4 |
| 20260510182143 | 15 | 194 | 16.1 | 24.1 | 0.00 | 0.30 | 0.30 | 67 | 1006.2 |
| 20260510181641 | 15 | 278 | 19.3 | 24.1 | 0.00 | 0.30 | 0.30 | 69 | 1006.2 |
| 20260510181137 | 15 | 331 | 6.4 | 27.4 | 0.00 | 0.30 | 0.30 | 71 | 1006.1 |
| 20260510180633 | 15 | 311 | 8.0 | 17.7 | 0.00 | 0.30 | 0.30 | 73 | 1006.0 |
| 20260510180131 | 15 | 269 | 14.5 | 30.6 | 0.00 | 0.30 | 0.30 | 72 | 1006.2 |
| 20260510175626 | 15 | 303 | 17.7 | 33.8 | 0.05 | 0.30 | 0.30 | 72 | 1006.0 |
| 20260510175122 | 15 | 264 | 27.4 | 27.4 | 0.05 | 0.30 | 0.30 | 70 | 1006.1 |
| 20260510174620 | 15 | 233 | 12.9 | 24.1 | 0.00 | 0.28 | 0.28 | 72 | 1006.0 |
| 20260510174117 | 15 | 130 | 4.8 | 8.0 | 0.00 | 0.28 | 0.28 | 78 | 1006.1 |
| 20260510173613 | 15 | 292 | 8.0 | 8.0 | 0.00 | 0.28 | 0.28 | 79 | 1006.0 |
| 20260510173109 | 13 | 128 | 12.9 | 17.7 | 0.00 | 0.28 | 0.28 | 78 | 1006.3 |
| 20260510172605 | 13 | 156 | 11.3 | 17.7 | 0.00 | 0.28 | 0.28 | 80 | 1006.2 |
| 20260510172101 | 13 | 334 | 6.4 | 20.9 | 0.00 | 0.28 | 0.28 | 80 | 1006.4 |
| 20260510171558 | 13 | 199 | 12.9 | 17.7 | 0.00 | 0.28 | 0.28 | 81 | 1006.6 |
| 20260510171056 | 12 | 207 | 4.8 | 11.3 | 0.00 | 0.28 | 0.28 | 83 | 1006.1 |
| 20260510170552 | 12 | 107 | 6.4 | 9.7 | 0.00 | 0.28 | 0.28 | 83 | 1006.3 |
| 20260510170049 | 12 | 180 | 4.8 | 14.5 | 0.00 | 0.28 | 0.28 | 82 | 1006.4 |
| 20260510165544 | 12 | 125 | 11.3 | 16.1 | 0.00 | 0.28 | 0.28 | 83 | 1006.4 |
| 20260510165041 | 12 | 125 | 11.3 | 12.9 | 0.00 | 0.28 | 0.28 | 84 | 1006.4 |
| 20260510164538 | 12 | 107 | 9.7 | 20.9 | 0.00 | 0.28 | 0.28 | 84 | 1006.2 |
| 20260510164034 | 12 | 242 | 4.8 | 9.7 | 0.00 | 0.28 | 0.28 | 86 | 1006.4 |
| 20260510163524 | 12 | 257 | 6.4 | 16.1 | 0.00 | 0.28 | 0.28 | 86 | 1006.3 |
| 20260510163020 | 12 | 239 | 6.4 | 19.3 | 0.00 | 0.28 | 0.28 | 87 | 1006.4 |
| 20260510162515 | 12 | 201 | 3.2 | 20.9 | 0.00 | 0.28 | 0.28 | 87 | 1006.1 |
| 20260510162012 | 12 | 204 | 14.5 | 17.7 | 0.00 | 0.28 | 0.28 | 88 | 1006.3 |
| 20260510161508 | 11 | 224 | 8.0 | 12.9 | 0.00 | 0.28 | 0.28 | 90 | 1006.1 |
| 20260510161005 | 11 | 163 | 8.0 | 12.9 | 0.00 | 0.28 | 0.28 | 90 | 1006.0 |
| 20260510160503 | 11 | 210 | 4.8 | 14.5 | 0.00 | 0.28 | 0.28 | 91 | 1006.1 |
| 20260510160000 | 11 | 220 | 9.7 | 12.9 | 0.00 | 0.28 | 0.28 | 92 | 1006.1 |
| 20260510155458 | 11 | 118 | 6.4 | 6.4 | 0.05 | 0.28 | 0.28 | 92 | 1006.2 |
| 20260510154955 | 11 | 131 | 0.0 | 3.2 | 0.05 | 0.28 | 0.28 | 92 | 1006.2 |
| 20260510154450 | 11 | 244 | 1.6 | 8.0 | 0.05 | 0.28 | 0.28 | 92 | 1006.2 |
| 20260510153949 | 11 | 272 | 4.8 | 6.4 | 0.05 | 0.28 | 0.28 | 92 | 1006.2 |
| 20260510153440 | 11 | 248 | 3.2 | 6.4 | 0.00 | 0.28 | 0.28 | 93 | 1006.3 |
| 20260510152937 | 11 | 118 | 6.4 | 9.7 | 0.05 | 0.28 | 0.28 | 93 | 1006.1 |
| 20260510152435 | 11 | 55 | 8.0 | 9.7 | 0.13 | 0.28 | 0.28 | 93 | 1006.2 |
| 20260510151931 | 11 | 120 | 3.2 | 3.2 | 0.43 | 0.25 | 0.25 | 93 | 1006.2 |
| 20260510151428 | 11 | 140 | 9.7 | 9.7 | 0.61 | 0.23 | 0.23 | 92 | 1006.4 |
| 20260510150925 | 11 | 125 | 3.2 | 4.8 | 0.61 | 0.18 | 0.18 | 91 | 1006.5 |
| 20260510150420 | 11 | 70 | 6.4 | 8.0 | 0.84 | 0.15 | 0.15 | 89 | 1006.3 |
| 20260510145916 | 11 | 56 | 3.2 | 6.4 | 0.36 | 0.05 | 0.05 | 87 | 1006.2 |
| 20260510145413 | 11 | 298 | 3.2 | 9.7 | 0.00 | 0.00 | 0.00 | 86 | 1006.1 |
| 20260510144910 | 11 | 133 | 12.9 | 16.1 | 0.00 | 0.00 | 0.00 | 85 | 1005.6 |
| 20260510144407 | 12 | 98 | 16.1 | 19.3 | 0.00 | 0.00 | 0.00 | 84 | 1005.7 |
| 20260510143907 | 12 | 43 | 14.5 | 16.1 | 0.00 | 0.00 | 0.00 | 86 | 1005.8 |
| 20260510143403 | 12 | 62 | 8.0 | 14.5 | 0.00 | 0.00 | 0.00 | 84 | 1005.9 |
| 20260510142900 | 12 | 114 | 6.4 | 16.1 | 0.00 | 0.00 | 0.00 | 83 | 1005.9 |
| 20260510142357 | 12 | 115 | 9.7 | 17.7 | 0.00 | 0.00 | 0.00 | 84 | 1005.9 |
| 20260510141854 | 12 | 124 | 9.7 | 16.1 | 0.00 | 0.00 | 0.00 | 83 | 1006.1 |
| 20260510141351 | 12 | 171 | 9.7 | 9.7 | 0.00 | 0.00 | 0.00 | 82 | 1005.9 |
| 20260510140848 | 12 | 55 | 11.3 | 14.5 | 0.00 | 0.00 | 0.00 | 84 | 1005.8 |
| 20260510140344 | 12 | 102 | 11.3 | 16.1 | 0.00 | 0.00 | 0.00 | 83 | 1005.8 |
| 20260510135843 | 12 | 60 | 11.3 | 20.9 | 0.00 | 0.00 | 0.00 | 84 | 1005.7 |
| 20260510135338 | 12 | 196 | 8.0 | 9.7 | 0.00 | 0.00 | 0.00 | 83 | 1005.7 |
| 20260510134837 | 11 | 136 | 6.4 | 14.5 | 0.00 | 0.00 | 0.00 | 84 | 1005.8 |
| 20260510134333 | 11 | 72 | 8.0 | 12.9 | 0.00 | 0.00 | 0.00 | 86 | 1005.8 |
| 20260510133830 | 11 | 154 | 11.3 | 14.5 | 0.00 | 0.00 | 0.00 | 88 | 1005.8 |
| 20260510133326 | 10 | 95 | 6.4 | 9.7 | 0.00 | 0.00 | 0.00 | 90 | 1006.1 |
| 20260510132821 | 10 | 139 | 8.0 | 9.7 | 0.00 | 0.00 | 0.00 | 90 | 1006.2 |
| 20260510132319 | 10 | 61 | 9.7 | 14.5 | 0.00 | 0.00 | 0.00 | 91 | 1005.8 |
| 20260510131816 | 10 | 61 | 12.9 | 19.3 | 0.00 | 0.00 | 0.00 | 91 | 1005.4 |
| 20260510131314 | 10 | 46 | 20.9 | 20.9 | 0.00 | 0.00 | 0.00 | 91 | 1005.5 |
| 20260510130810 | 10 | 68 | 11.3 | 12.9 | 0.00 | 0.00 | 0.00 | 91 | 1005.8 |
| 20260510130307 | 10 | 60 | 11.3 | 14.5 | 0.00 | 0.00 | 0.00 | 92 | 1005.8 |
| 20260510125803 | 10 | 54 | 12.9 | 19.3 | 0.00 | 0.00 | 0.00 | 92 | 1005.9 |
| 20260510125259 | 10 | 85 | 8.0 | 14.5 | 0.00 | 0.00 | 0.00 | 92 | 1005.9 |
| 20260510124756 | 10 | 82 | 8.0 | 16.1 | 0.00 | 0.00 | 0.00 | 92 | 1006.1 |
| 20260510124254 | 10 | 65 | 8.0 | 11.3 | 0.00 | 0.00 | 0.00 | 92 | 1006.0 |
| 20260510123749 | 10 | 99 | 6.4 | 11.3 | 0.00 | 0.00 | 0.00 | 92 | 1006.1 |
| 20260510123245 | 9 | 86 | 6.4 | 9.7 | 0.00 | 0.00 | 0.00 | 92 | 1005.9 |
| 20260510122741 | 9 | 112 | 11.3 | 17.7 | 0.00 | 0.00 | 0.00 | 92 | 1005.8 |
| 20260510122238 | 10 | 65 | 16.1 | 22.5 | 0.00 | 0.00 | 0.00 | 92 | 1005.7 |
| 20260510121734 | 9 | 70 | 11.3 | 19.3 | 0.00 | 0.00 | 0.00 | 92 | 1005.8 |
| 20260510121232 | 9 | 50 | 11.3 | 17.7 | 0.00 | 0.00 | 0.00 | 92 | 1005.6 |
| 20260510120729 | 9 | 49 | 9.7 | 11.3 | 0.00 | 0.00 | 0.00 | 93 | 1005.9 |
| 20260510120226 | 9 | 60 | 6.4 | 12.9 | 0.00 | 0.00 | 0.00 | 92 | 1005.9 |
| 20260510115721 | 9 | 80 | 4.8 | 9.7 | 0.00 | 0.00 | 0.00 | 92 | 1005.7 |
| 20260510115220 | 9 | 43 | 8.0 | 12.9 | 0.00 | 0.00 | 0.00 | 92 | 1005.7 |
| 20260510114714 | 9 | 66 | 8.0 | 17.7 | 0.00 | 0.00 | 0.00 | 92 | 1005.5 |
| 20260510114212 | 9 | 58 | 9.7 | 17.7 | 0.00 | 0.00 | 0.00 | 93 | 1005.7 |
| 20260510113707 | 9 | 138 | 11.3 | 11.3 | 0.00 | 0.00 | 0.00 | 94 | 1005.8 |
| 20260510113204 | 8 | 80 | 8.0 | 11.3 | 0.00 | 0.00 | 0.00 | 94 | 1005.5 |
| 20260510112700 | 8 | 125 | 9.7 | 12.9 | 0.00 | 0.00 | 0.00 | 95 | 1005.7 |
| 20260510112158 | 8 | 65 | 6.4 | 11.3 | 0.00 | 0.00 | 0.00 | 95 | 1005.8 |
| 20260510111648 | 8 | 103 | 3.2 | 14.5 | 0.00 | 0.00 | 0.00 | 95 | 1005.5 |
| 20260510111144 | 8 | 64 | 11.3 | 12.9 | 0.00 | 0.00 | 0.00 | 95 | 1005.6 |
| 20260510110639 | 8 | 102 | 4.8 | 6.4 | 0.00 | 0.00 | 0.00 | 95 | 1005.5 |
| 20260510110137 | 8 | 61 | 4.8 | 8.0 | 0.00 | 0.00 | 0.00 | 96 | 1005.0 |
| 20260510105633 | 8 | 56 | 9.7 | 17.7 | 0.00 | 0.00 | 0.00 | 96 | 1004.6 |
| 20260510105132 | 8 | 66 | 12.9 | 17.7 | 0.00 | 0.00 | 0.00 | 96 | 1005.0 |
| 20260510104630 | 8 | 101 | 8.0 | 12.9 | 0.00 | 0.00 | 0.00 | 96 | 1005.1 |
| 20260510104126 | 8 | 66 | 9.7 | 12.9 | 0.00 | 0.00 | 0.00 | 97 | 1004.9 |
| 20260510103623 | 8 | 65 | 9.7 | 9.7 | 0.00 | 0.00 | 0.00 | 97 | 1005.1 |
| 20260510103119 | 8 | 76 | 9.7 | 12.9 | 0.00 | 0.00 | 0.00 | 96 | 1005.2 |
| 20260510102615 | 8 | 87 | 4.8 | 9.7 | 0.00 | 0.00 | 0.00 | 96 | 1005.1 |
| 20260510102111 | 8 | 35 | 11.3 | 14.5 | 0.00 | 0.00 | 0.00 | 96 | 1005.0 |
| 20260510101609 | 8 | 72 | 9.7 | 14.5 | 0.00 | 0.00 | 0.00 | 96 | 1005.0 |
| 20260510101107 | 8 | 44 | 8.0 | 14.5 | 0.00 | 0.00 | 0.00 | 96 | 1004.9 |
| 20260510100603 | 7 | 89 | 6.4 | 14.5 | 0.00 | 0.00 | 0.00 | 96 | 1004.8 |
| 20260510100100 | 8 | 58 | 9.7 | 14.5 | 0.00 | 0.00 | 0.00 | 96 | 1004.7 |
| 20260510095556 | 8 | 78 | 11.3 | 16.1 | 0.00 | 0.00 | 0.00 | 96 | 1004.7 |
| 20260510095055 | 8 | 60 | 14.5 | 16.1 | 0.00 | 0.00 | 0.00 | 96 | 1004.5 |
| 20260510094550 | 8 | 56 | 9.7 | 11.3 | 0.00 | 0.00 | 0.00 | 96 | 1004.3 |
| 20260510094046 | 8 | 61 | 9.7 | 14.5 | 0.00 | 0.00 | 0.00 | 96 | 1004.4 |
| 20260510093542 | 8 | 77 | 8.0 | 12.9 | 0.00 | 0.00 | 0.00 | 96 | 1004.4 |
| 20260510093039 | 8 | 67 | 4.8 | 4.8 | 0.00 | 0.00 | 0.00 | 96 | 1004.2 |
| 20260510092536 | 7 | 92 | 4.8 | 9.7 | 0.00 | 0.00 | 0.00 | 96 | 1004.2 |
| 20260510092035 | 8 | 68 | 8.0 | 9.7 | 0.00 | 0.00 | 0.00 | 96 | 1004.2 |
| 20260510091532 | 7 | 74 | 6.4 | 8.0 | 0.00 | 0.00 | 0.00 | 96 | 1004.2 |
| 20260510091028 | 7 | 76 | 11.3 | 12.9 | 0.00 | 0.00 | 0.00 | 96 | 1003.7 |
| 20260510090526 | 8 | 51 | 8.0 | 9.7 | 0.00 | 0.00 | 0.00 | 96 | 1004.0 |
| 20260510090021 | 7 | 48 | 6.4 | 8.0 | 0.00 | 0.00 | 0.00 | 96 | 1004.3 |
| 20260510085521 | 7 | 75 | 6.4 | 14.5 | 0.00 | 0.00 | 0.00 | 96 | 1004.0 |
| 20260510085017 | 7 | 45 | 8.0 | 9.7 | 0.00 | 0.00 | 0.00 | 96 | 1003.8 |
| 20260510084514 | 7 | 101 | 4.8 | 9.7 | 0.00 | 0.00 | 0.00 | 96 | 1004.1 |
| 20260510084011 | 7 | 53 | 9.7 | 9.7 | 0.00 | 0.00 | 0.00 | 96 | 1004.4 |
| 20260510083508 | 7 | 80 | 8.0 | 9.7 | 0.00 | 0.00 | 0.00 | 96 | 1004.6 |
| 20260510083004 | 7 | 64 | 4.8 | 9.7 | 0.00 | 0.00 | 0.00 | 96 | 1004.5 |
| 20260510082501 | 7 | 60 | 6.4 | 8.0 | 0.00 | 0.00 | 0.00 | 96 | 1004.3 |
| 20260510082000 | 7 | 62 | 6.4 | 8.0 | 0.00 | 0.00 | 0.00 | 96 | 1004.3 |
| 20260510081456 | 7 | 82 | 6.4 | 9.7 | 0.00 | 0.00 | 0.00 | 96 | 1004.5 |
| 20260510080952 | 7 | 52 | 9.7 | 11.3 | 0.00 | 0.00 | 0.00 | 96 | 1004.7 |
| 20260510080450 | 7 | 74 | 11.3 | 14.5 | 0.00 | 0.00 | 0.00 | 96 | 1004.4 |
| 20260510075948 | 7 | 71 | 8.0 | 12.9 | 0.00 | 0.00 | 0.00 | 96 | 1004.4 |
| 20260510075446 | 7 | 67 | 9.7 | 14.5 | 0.00 | 0.00 | 0.00 | 96 | 1004.2 |
| 20260510074942 | 7 | 69 | 12.9 | 16.1 | 0.00 | 0.00 | 0.00 | 96 | 1004.4 |
| 20260510074440 | 7 | 62 | 9.7 | 14.5 | 0.00 | 0.00 | 0.00 | 96 | 1004.4 |
| 20260510073936 | 7 | 73 | 14.5 | 17.7 | 0.00 | 0.00 | 0.00 | 96 | 1004.3 |
| 20260510073431 | 7 | 61 | 12.9 | 16.1 | 0.00 | 0.00 | 0.00 | 96 | 1004.5 |
| 20260510072928 | 7 | 70 | 12.9 | 17.7 | 0.00 | 0.00 | 0.00 | 96 | 1004.4 |
| 20260510072425 | 7 | 63 | 12.9 | 14.5 | 0.00 | 0.00 | 0.00 | 96 | 1004.7 |
| 20260510071920 | 7 | 65 | 8.0 | 12.9 | 0.00 | 0.00 | 0.00 | 96 | 1004.8 |
| 20260510071417 | 7 | 71 | 9.7 | 14.5 | 0.00 | 0.00 | 0.00 | 96 | 1004.8 |
| 20260510070916 | 7 | 65 | 8.0 | 17.7 | 0.00 | 0.00 | 0.00 | 96 | 1004.7 |
| 20260510070413 | 7 | 54 | 12.9 | 16.1 | 0.00 | 0.00 | 0.00 | 96 | 1004.6 |
| 20260510065908 | 7 | 73 | 9.7 | 14.5 | 0.00 | 0.00 | 0.00 | 96 | 1004.8 |
| 20260510065405 | 6 | 61 | 11.3 | 17.7 | 0.00 | 0.00 | 0.00 | 96 | 1005.0 |
| 20260510064901 | 6 | 63 | 9.7 | 14.5 | 0.00 | 0.00 | 0.00 | 96 | 1004.8 |
| 20260510064359 | 6 | 74 | 11.3 | 12.9 | 0.00 | 0.00 | 0.00 | 96 | 1004.8 |
| 20260510063855 | 6 | 70 | 11.3 | 12.9 | 0.00 | 0.00 | 0.00 | 96 | 1004.9 |
| 20260510063351 | 6 | 66 | 11.3 | 14.5 | 0.00 | 0.00 | 0.00 | 96 | 1004.8 |
| 20260510062848 | 6 | 59 | 9.7 | 14.5 | 0.00 | 0.00 | 0.00 | 96 | 1004.7 |
| 20260510062343 | 6 | 70 | 8.0 | 9.7 | 0.00 | 0.00 | 0.00 | 96 | 1004.8 |
| 20260510061839 | 6 | 98 | 8.0 | 9.7 | 0.00 | 0.00 | 0.00 | 96 | 1004.8 |
| 20260510061336 | 6 | 74 | 8.0 | 12.9 | 0.00 | 0.00 | 0.00 | 96 | 1004.9 |
| 20260510060832 | 6 | 47 | 11.3 | 14.5 | 0.00 | 0.00 | 0.00 | 96 | 1004.8 |
| 20260510060330 | 6 | 66 | 12.9 | 14.5 | 0.00 | 0.00 | 0.00 | 96 | 1004.8 |
| 20260510055826 | 6 | 62 | 9.7 | 17.7 | 0.00 | 0.00 | 0.00 | 96 | 1004.8 |
| 20260510055325 | 6 | 54 | 8.0 | 12.9 | 0.00 | 0.00 | 0.00 | 96 | 1004.9 |
| 20260510054824 | 6 | 102 | 4.8 | 4.8 | 0.00 | 0.00 | 0.00 | 96 | 1004.9 |
| 20260510054320 | 6 | 56 | 11.3 | 14.5 | 0.00 | 0.00 | 0.00 | 96 | 1005.0 |
| 20260510053815 | 6 | 56 | 6.4 | 9.7 | 0.00 | 0.00 | 0.00 | 96 | 1004.9 |
| 20260510053311 | 6 | 54 | 8.0 | 17.7 | 0.00 | 0.00 | 0.00 | 96 | 1004.9 |
| 20260510052808 | 7 | 59 | 12.9 | 14.5 | 0.00 | 0.00 | 0.00 | 96 | 1005.0 |
| 20260510052306 | 6 | 88 | 11.3 | 16.1 | 0.00 | 0.00 | 0.00 | 96 | 1005.0 |
| 20260510051800 | 6 | 54 | 8.0 | 16.1 | 0.00 | 0.00 | 0.00 | 96 | 1005.3 |
| 20260510051256 | 6 | 66 | 6.4 | 9.7 | 0.00 | 0.00 | 0.00 | 96 | 1005.2 |
| 20260510050753 | 6 | 69 | 9.7 | 11.3 | 0.00 | 0.00 | 0.00 | 96 | 1005.1 |
| 20260510050250 | 6 | 98 | 4.8 | 11.3 | 0.00 | 0.00 | 0.00 | 95 | 1005.2 |
| 20260510045747 | 6 | 77 | 6.4 | 11.3 | 0.00 | 0.00 | 0.00 | 95 | 1005.3 |
| 20260510045244 | 6 | 63 | 6.4 | 8.0 | 0.00 | 0.00 | 0.00 | 95 | 1004.9 |
| 20260510044741 | 6 | 81 | 8.0 | 9.7 | 0.00 | 0.00 | 0.00 | 95 | 1005.3 |
| 20260510044239 | 6 | 69 | 6.4 | 9.7 | 0.00 | 0.00 | 0.00 | 95 | 1005.0 |
| 20260510043733 | 6 | 69 | 8.0 | 8.0 | 0.00 | 0.00 | 0.00 | 95 | 1004.9 |
| 20260510043231 | 6 | 71 | 8.0 | 9.7 | 0.00 | 0.00 | 0.00 | 94 | 1004.7 |
| 20260510042728 | 6 | 86 | 6.4 | 12.9 | 0.00 | 0.00 | 0.00 | 94 | 1004.9 |
| 20260510042223 | 6 | 55 | 6.4 | 9.7 | 0.00 | 0.00 | 0.00 | 94 | 1005.1 |
| 20260510041721 | 6 | 77 | 8.0 | 9.7 | 0.00 | 0.00 | 0.00 | 94 | 1004.9 |
| 20260510041218 | 6 | 69 | 9.7 | 16.1 | 0.00 | 0.00 | 0.00 | 94 | 1005.0 |
| 20260510040715 | 6 | 76 | 6.4 | 9.7 | 0.00 | 0.00 | 0.00 | 94 | 1005.1 |
| 20260510040212 | 6 | 64 | 6.4 | 8.0 | 0.00 | 0.00 | 0.00 | 93 | 1005.5 |
| 20260510035707 | 7 | 65 | 8.0 | 11.3 | 0.00 | 0.05 | 0.05 | 93 | 1005.2 |
| 20260510035203 | 7 | 67 | 8.0 | 14.5 | 0.00 | 0.05 | 0.05 | 93 | 1005.4 |
| 20260510034659 | 7 | 78 | 4.8 | 8.0 | 0.00 | 0.05 | 0.05 | 93 | 1005.1 |
| 20260510034156 | 7 | 80 | 6.4 | 14.5 | 0.00 | 0.05 | 0.05 | 93 | 1005.2 |
| 20260510033653 | 7 | 81 | 4.8 | 11.3 | 0.00 | 0.05 | 0.05 | 93 | 1005.1 |
| 20260510033150 | 7 | 67 | 14.5 | 17.7 | 0.00 | 0.05 | 0.05 | 93 | 1005.0 |
| 20260510032647 | 7 | 96 | 6.4 | 9.7 | 0.00 | 0.05 | 0.05 | 93 | 1005.3 |
| 20260510032142 | 6 | 75 | 4.8 | 6.4 | 0.00 | 0.05 | 0.05 | 93 | 1005.1 |
| 20260510031637 | 6 | 125 | 0.0 | 6.4 | 0.00 | 0.05 | 0.05 | 93 | 1005.6 |
| 20260510031134 | 6 | 72 | 6.4 | 8.0 | 0.00 | 0.05 | 0.05 | 92 | 1005.3 |
| 20260510030628 | 7 | 68 | 6.4 | 8.0 | 0.00 | 0.05 | 0.05 | 93 | 1005.4 |
| 20260510030126 | 7 | 72 | 4.8 | 6.4 | 0.00 | 0.05 | 0.05 | 93 | 1005.2 |
| 20260510025623 | 7 | 106 | 4.8 | 8.0 | 0.00 | 0.05 | 0.05 | 93 | 1005.2 |
| 20260510025121 | 7 | 73 | 8.0 | 12.9 | 0.00 | 0.05 | 0.05 | 93 | 1005.2 |
| 20260510024617 | 7 | 66 | 6.4 | 8.0 | 0.00 | 0.05 | 0.05 | 92 | 1005.5 |
| 20260510024114 | 7 | 78 | 4.8 | 9.7 | 0.00 | 0.05 | 0.05 | 92 | 1005.4 |
| 20260510023609 | 7 | 76 | 6.4 | 8.0 | 0.00 | 0.05 | 0.05 | 92 | 1005.2 |
| 20260510023108 | 7 | 108 | 4.8 | 9.7 | 0.00 | 0.05 | 0.05 | 92 | 1005.4 |
| 20260510022607 | 7 | 63 | 9.7 | 17.7 | 0.00 | 0.05 | 0.05 | 92 | 1005.4 |
| 20260510022102 | 7 | 92 | 6.4 | 6.4 | 0.00 | 0.05 | 0.05 | 92 | 1005.3 |
| 20260510021553 | 7 | 60 | 9.7 | 12.9 | 0.00 | 0.05 | 0.05 | 92 | 1005.6 |
| 20260510021050 | 7 | 75 | 4.8 | 6.4 | 0.00 | 0.05 | 0.05 | 92 | 1005.6 |
| 20260510020544 | 7 | 111 | 6.4 | 8.0 | 0.00 | 0.05 | 0.05 | 92 | 1005.6 |
| 20260510020040 | 7 | 76 | 3.2 | 9.7 | 0.00 | 0.05 | 0.05 | 92 | 1005.6 |
| 20260510015536 | 7 | 82 | 8.0 | 14.5 | 0.00 | 0.05 | 0.05 | 92 | 1005.6 |
| 20260510015032 | 7 | 75 | 9.7 | 14.5 | 0.00 | 0.05 | 0.05 | 92 | 1005.7 |
| 20260510014528 | 7 | 49 | 11.3 | 11.3 | 0.00 | 0.05 | 0.05 | 92 | 1005.7 |
| 20260510014025 | 7 | 64 | 8.0 | 16.1 | 0.00 | 0.05 | 0.05 | 91 | 1005.6 |
| 20260510013521 | 7 | 108 | 8.0 | 8.0 | 0.00 | 0.05 | 0.05 | 91 | 1005.8 |
| 20260510013016 | 7 | 144 | 6.4 | 14.5 | 0.00 | 0.05 | 0.05 | 91 | 1006.0 |
| 20260510012511 | 7 | 78 | 6.4 | 9.7 | 0.00 | 0.05 | 0.05 | 91 | 1006.0 |
| 20260510012007 | 7 | 130 | 3.2 | 9.7 | 0.00 | 0.05 | 0.05 | 91 | 1006.1 |
| 20260510011502 | 7 | 91 | 6.4 | 6.4 | 0.00 | 0.05 | 0.05 | 91 | 1006.0 |
| 20260510010957 | 7 | 118 | 4.8 | 4.8 | 0.00 | 0.05 | 0.05 | 92 | 1005.9 |
| 20260510010455 | 7 | 115 | 4.8 | 8.0 | 0.00 | 0.05 | 0.05 | 92 | 1005.9 |
| 20260510005951 | 7 | 167 | 3.2 | 4.8 | 0.00 | 0.05 | 0.05 | 92 | 1005.9 |
| 20260510005447 | 7 | 75 | 8.0 | 9.7 | 0.00 | 0.05 | 0.05 | 92 | 1005.8 |
| 20260510004945 | 7 | 141 | 14.5 | 16.1 | 0.00 | 0.05 | 0.05 | 92 | 1005.8 |
| 20260510004442 | 7 | 85 | 9.7 | 12.9 | 0.00 | 0.05 | 0.05 | 92 | 1005.6 |
| 20260510003940 | 7 | 123 | 11.3 | 11.3 | 0.00 | 0.05 | 0.05 | 92 | 1005.5 |
| 20260510003437 | 7 | 96 | 6.4 | 12.9 | 0.00 | 0.05 | 0.05 | 92 | 1005.5 |
| 20260510002936 | 7 | 75 | 6.4 | 9.7 | 0.00 | 0.05 | 0.05 | 92 | 1005.6 |
| 20260510002433 | 7 | 113 | 8.0 | 8.0 | 0.00 | 0.05 | 0.05 | 92 | 1005.5 |
| 20260510001929 | 7 | 43 | 8.0 | 8.0 | 0.00 | 0.05 | 0.05 | 92 | 1005.4 |
| 20260510001427 | 7 | 127 | 4.8 | 6.4 | 0.00 | 0.05 | 0.05 | 91 | 1005.5 |
| 20260510000925 | 7 | 94 | 3.2 | 9.7 | 0.00 | 0.05 | 0.05 | 91 | 1005.3 |
| 20260510000421 | 7 | 74 | 8.0 | 9.7 | 0.00 | 0.05 | 0.05 | 91 | 1005.4 |
| 20260509235917 | 7 | 103 | 8.0 | 14.5 | 0.00 | 0.05 | 0.05 | 90 | 1005.4 |
| 20260509235415 | 7 | 40 | 12.9 | 14.5 | 0.00 | 0.05 | 0.05 | 90 | 1005.5 |
| 20260509234910 | 7 | 137 | 6.4 | 9.7 | 0.00 | 0.05 | 0.05 | 90 | 1005.3 |
| 20260509234408 | 7 | 119 | 6.4 | 14.5 | 0.00 | 0.05 | 0.05 | 90 | 1005.3 |
| 20260509233905 | 7 | 52 | 8.0 | 8.0 | 0.00 | 0.05 | 0.05 | 89 | 1005.4 |
| 20260509233402 | 7 | 216 | 1.6 | 8.0 | 0.00 | 0.05 | 0.05 | 89 | 1005.4 |
| 20260509232857 | 7 | 104 | 4.8 | 4.8 | 0.00 | 0.05 | 0.05 | 89 | 1005.4 |
| 20260509232357 | 7 | 144 | 8.0 | 9.7 | 0.00 | 0.05 | 0.05 | 89 | 1005.4 |
| 20260509231852 | 7 | 58 | 1.6 | 4.8 | 0.00 | 0.05 | 0.05 | 89 | 1005.4 |
| 20260509231349 | 7 | 84 | 6.4 | 9.7 | 0.00 | 0.05 | 0.05 | 89 | 1005.4 |
| 20260509230847 | 7 | 119 | 8.0 | 14.5 | 0.00 | 0.05 | 0.05 | 88 | 1005.3 |
| 20260509230343 | 7 | 114 | 3.2 | 9.7 | 0.00 | 0.05 | 0.05 | 88 | 1005.2 |
| 20260509225838 | 7 | 77 | 3.2 | 8.0 | 0.00 | 0.05 | 0.05 | 88 | 1005.3 |
| 20260509225336 | 7 | 165 | 0.0 | 14.5 | 0.00 | 0.05 | 0.05 | 88 | 1005.3 |
| 20260509224832 | 7 | 108 | 4.8 | 6.4 | 0.00 | 0.05 | 0.05 | 88 | 1005.4 |
| 20260509224328 | 7 | 108 | 11.3 | 17.7 | 0.00 | 0.05 | 0.05 | 88 | 1005.5 |
| 20260509223825 | 7 | 123 | 6.4 | 9.7 | 0.00 | 0.05 | 0.05 | 88 | 1005.5 |
| 20260509223322 | 7 | 138 | 12.9 | 14.5 | 0.00 | 0.05 | 0.05 | 87 | 1005.4 |
| 20260509222819 | 7 | 131 | 6.4 | 6.4 | 0.00 | 0.05 | 0.05 | 87 | 1005.4 |
| 20260509222314 | 7 | 155 | 9.7 | 17.7 | 0.00 | 0.05 | 0.05 | 87 | 1005.5 |
| 20260509221809 | 7 | 86 | 6.4 | 9.7 | 0.00 | 0.05 | 0.05 | 88 | 1005.7 |
| 20260509221307 | 7 | 97 | 6.4 | 14.5 | 0.00 | 0.05 | 0.05 | 88 | 1005.5 |
| 20260509220802 | 7 | 112 | 8.0 | 12.9 | 0.00 | 0.05 | 0.05 | 88 | 1005.5 |
| 20260509220259 | 7 | 132 | 6.4 | 8.0 | 0.00 | 0.05 | 0.05 | 88 | 1005.6 |
| 20260509215754 | 7 | 104 | 3.2 | 19.3 | 0.00 | 0.05 | 0.05 | 88 | 1005.8 |
| 20260509215251 | 7 | 143 | 3.2 | 17.7 | 0.00 | 0.05 | 0.05 | 88 | 1005.6 |
| 20260509214748 | 7 | 133 | 9.7 | 11.3 | 0.00 | 0.05 | 0.05 | 88 | 1005.6 |
| 20260509214245 | 7 | 108 | 9.7 | 11.3 | 0.00 | 0.05 | 0.05 | 88 | 1005.8 |
| 20260509213742 | 7 | 121 | 9.7 | 16.1 | 0.00 | 0.05 | 0.05 | 88 | 1005.9 |
| 20260509213238 | 7 | 71 | 8.0 | 12.9 | 0.00 | 0.05 | 0.05 | 88 | 1005.8 |
| 20260509212735 | 7 | 154 | 8.0 | 11.3 | 0.00 | 0.05 | 0.05 | 88 | 1005.9 |
| 20260509212233 | 7 | 91 | 4.8 | 14.5 | 0.00 | 0.05 | 0.05 | 88 | 1005.8 |
| 20260509211728 | 7 | 54 | 6.4 | 9.7 | 0.00 | 0.05 | 0.05 | 89 | 1005.8 |